This is the latest recevied weather packets stored in our database for station/object KM7BEO. If no packets are shown the sender has not sent any weather packets the latest 10 day(s).
| Time | Temp. | Humidity | Pressure | Rain* | Wind** | Luminosity | Snow |
|---|---|---|---|---|---|---|---|
| 1778012012 | 13.89° C | 82% | 1015.7 hPa | 0 mm | - | 299 W/m² | - |
| 1778011710 | 13.89° C | 81% | 1015.7 hPa | 0 mm | - | 305 W/m² | - |
| 1778011407 | 13.89° C | 81% | 1015.6 hPa | 0 mm | - | 303 W/m² | - |
| 1778011102 | 13.89° C | 81% | 1015.6 hPa | 0 mm | - | 294 W/m² | - |
| 1778010800 | 13.89° C | 82% | 1015.6 hPa | 0 mm | - | 276 W/m² | - |
| 1778010496 | 13.89° C | 81% | 1015.6 hPa | 0 mm | - | 259 W/m² | - |
| 1778010194 | 13.89° C | 83% | 1015.8 hPa | 0 mm | - | 245 W/m² | - |
| 1778009889 | 13.89° C | 82% | 1015.9 hPa | 0 mm | - | 237 W/m² | - |
| 1778009587 | 13.89° C | 82% | 1015.8 hPa | 0 mm | - | 240 W/m² | - |
| 1778009285 | 13.89° C | 82% | 1015.7 hPa | 0 mm | - | 247 W/m² | - |
| 1778008983 | 14.44° C | 80% | 1015.7 hPa | 0 mm | - | 240 W/m² | - |
| 1778008680 | 13.89° C | 81% | 1015.5 hPa | 0 mm | - | 231 W/m² | - |
| 1778008378 | 13.89° C | 81% | 1015.7 hPa | 0 mm | - | 226 W/m² | - |
| 1778008075 | 13.89° C | 82% | 1015.6 hPa | 0 mm | - | 216 W/m² | - |
| 1778007769 | 13.89° C | 82% | 1015.7 hPa | 0 mm | - | 211 W/m² | - |
| 1778007466 | 13.89° C | 82% | 1015.5 hPa | 0 mm | - | 201 W/m² | - |
| 1778007163 | 13.89° C | 83% | 1015.6 hPa | 0 mm | - | 189 W/m² | - |
| 1778006859 | 13.33° C | 83% | 1015.7 hPa | 0 mm | - | 186 W/m² | - |
| 1778006556 | 13.33° C | 83% | 1015.5 hPa | 0 mm | - | 186 W/m² | - |
| 1778006253 | 13.33° C | 84% | 1015.6 hPa | 0 mm | - | 169 W/m² | - |
| 1778005950 | 13.33° C | 85% | 1015.6 hPa | 0 mm | - | 167 W/m² | - |
| 1778005647 | 13.33° C | 84% | 1015.6 hPa | 0 mm | - | 156 W/m² | - |
| 1778005344 | 13.33° C | 85% | 1015.4 hPa | 0 mm | - | 148 W/m² | - |
| 1778005040 | 13.33° C | 85% | 1015.5 hPa | 0 mm | - | 142 W/m² | - |
| 1778004738 | 13.33° C | 85% | 1015.5 hPa | 0 mm | - | 140 W/m² | - |
* Rain latest hour (hover to see other rain measurements)
** Current wind speed in m/s (hover to see current wind gust speed)